Flag for India Weather past 2 weeks in Jaisalmer, Rajasthan, India

Now
95 °F

Haze.


Feels Like: 97 °F
Forecast: 76 / 99 °F
Wind: 5 mph from Northeast

Location: Sukkur

Current Time: Mar 27, 2015 at 7:08:09 PM

Latest Report: Mar 27, 2015 at 6:30 PM


Visibility: 3 mi

Pressure: 29.77 "Hg

Humidity: 36%

Dew point: 64 °F

Location of JaisalmerLocation

Historic Weather in Jaisalmer — Graph

°F

Jaisalmer temperature yesterday

Maximum temperature yesterday: 95 °F (at 2:30 PM)
Minimum temperature yesterday: 77 °F (at 11:30 PM)
Average temperature yesterday: 90 °F

Past Weeks' High & Low Weather Summary

 TemperatureHumidityPressure
High102 °F (Mar 24, 2:30 PM)94% (Mar 14, 6:00 AM)30.15 "Hg (Mar 14, 6:00 AM)
Low55 °F (Mar 13, 6:30 AM)26% (Mar 12, 5:30 PM)29.68 "Hg (Mar 24, 5:30 PM)
Average77 °F62%29.89 "Hg
* Reported Mar 12 5:30 PM — Mar 27 5:30 PM, Jaisalmer, Weather by CustomWeather, © 2015

Note: Actual official high and low records may vary slightly from our data, if they occured in-between our weather recording intervals... More about our weather records

Advertising

Jaisalmer weather history for previous 24 hours

 ConditionsComfort  
Time TempWeatherWind HumidityBarometerVisibility
5:30 PM
Fri, Mar 27
97 °FHaze.5 mph42%29.77 "Hg3 mi
4:30 PM97 °FHaze.9 mph44%29.77 "Hg3 mi
3:30 PM99 °FHaze.7 mph29%29.83 "Hg3 mi
2:30 PM97 °FHaze.9 mph37%29.86 "Hg3 mi
1:30 PM95 °FHaze.9 mph36%29.89 "Hg3 mi
12:30 PM93 °FHaze.5 mph41%29.92 "Hg3 mi
11:30 AM90 °FHaze.12 mph43%29.92 "Hg3 mi
10:30 AM84 °FHaze.12 mph51%29.95 "Hg3 mi
9:30 AM81 °FHaze.12 mph58%29.92 "Hg2 mi
8:30 AM75 °FHaze.7 mph69%29.92 "Hg2 mi
8:00 AM70 °FHaze.3 mph78%29.89 "Hg1 mi
7:30 AM70 °FHaze.3 mph78%29.89 "Hg1 mi
6:30 AM73 °FHaze.5 mph69%29.83 "Hg1 mi
5:30 AM73 °FHaze.5 mph69%29.83 "Hg1 mi
2:30 AM75 °FHaze.5 mph69%29.86 "Hg2 mi
2:00 AM75 °FHaze.5 mph69%29.86 "Hg2 mi
1:30 AM75 °FHaze.5 mph69%29.89 "Hg2 mi
1:00 AM75 °FHaze.5 mph69%29.89 "Hg2 mi
12:30 AM77 °FHaze.5 mph65%29.89 "Hg2 mi
12:00 AM77 °FHaze.7 mph65%29.92 "Hg2 mi
11:30 PM
Thu, Mar 26
77 °FHaze.7 mph65%29.92 "Hg2 mi
9:30 PM84 °FHaze.5 mph51%29.89 "HgN/A
9:00 PM86 °FHaze.5 mph46%29.86 "Hg2 mi
7:30 PM88 °FHaze.5 mph49%29.86 "Hg3 mi
7:00 PM91 °FHaze.5 mph41%29.83 "Hg3 mi
Weather by CustomWeather, © 2015

See weather overviewHow to use our weather pages